| time (UTC) | temp F | wind direction | speed MPH | gust MPH | rain 1hr in | rain 24hr in | rain mn in | humidity % | barometer mb |
| 20260906202832 | 83 | 134 | 1.0 | 3.0 | 0.00 | 0.00 | 0.00 | 51 | 1015.7 |
| 20260906202326 | 82 | 124 | 0.0 | 4.0 | 0.00 | 0.00 | 0.00 | 49 | 1015.7 |
| 20260906201820 | 83 | 327 | 0.0 | 3.0 | 0.00 | 0.00 | 0.00 | 49 | 1016.0 |
| 20260906201320 | 83 | 104 | 2.0 | 8.0 | 0.00 | 0.00 | 0.00 | 49 | 1015.8 |
| 20260906200816 | 82 | 291 | 3.0 | 4.0 | 0.00 | 0.00 | 0.00 | 51 | 1015.8 |
| 20260906200312 | 82 | 296 | 1.0 | 1.0 | 0.00 | 0.00 | 0.00 | 53 | 1015.9 |
| 20260906195807 | 82 | 135 | 1.0 | 2.0 | 0.00 | 0.00 | 0.00 | 53 | 1015.9 |
| 20260906195306 | 82 | 155 | 1.0 | 3.0 | 0.00 | 0.00 | 0.00 | 53 | 1015.9 |
| 20260906194759 | 82 | 140 | 0.0 | 5.0 | 0.00 | 0.00 | 0.00 | 50 | 1016.0 |
| 20260906194254 | 82 | 191 | 0.0 | 1.0 | 0.00 | 0.00 | 0.00 | 55 | 1015.8 |
| 20260906193749 | 82 | 237 | 1.0 | 6.0 | 0.00 | 0.00 | 0.00 | 52 | 1015.8 |
| 20260906193244 | 83 | 257 | 2.0 | 4.0 | 0.00 | 0.00 | 0.00 | 52 | 1015.9 |
| 20260906192740 | 83 | 118 | 3.0 | 5.0 | 0.00 | 0.00 | 0.00 | 54 | 1015.7 |
| 20260906192234 | 83 | 294 | 4.0 | 5.0 | 0.00 | 0.00 | 0.00 | 51 | 1015.8 |
| 20260906191733 | 83 | 135 | 4.0 | 5.0 | 0.00 | 0.00 | 0.00 | 51 | 1015.6 |
| 20260906191228 | 82 | 317 | 2.0 | 5.0 | 0.00 | 0.00 | 0.00 | 51 | 1016.0 |
| 20260906190728 | 83 | 200 | 3.0 | 5.0 | 0.00 | 0.00 | 0.00 | 50 | 1015.9 |
| 20260906190222 | 83 | 165 | 3.0 | 4.0 | 0.00 | 0.00 | 0.00 | 52 | 1015.9 |
| 20260906185721 | 82 | 182 | 2.0 | 3.0 | 0.00 | 0.00 | 0.00 | 53 | 1016.1 |
| 20260906185221 | 84 | 130 | 3.0 | 5.0 | 0.00 | 0.00 | 0.00 | 49 | 1016.3 |
| 20260906184715 | 84 | 243 | 3.0 | 4.0 | 0.00 | 0.00 | 0.00 | 50 | 1016.0 |
| 20260906184211 | 84 | 231 | 4.0 | 5.0 | 0.00 | 0.00 | 0.00 | 51 | 1016.1 |
| 20260906183707 | 83 | 282 | 3.0 | 3.0 | 0.00 | 0.00 | 0.00 | 53 | 1016.1 |
| 20260906183203 | 82 | 285 | 2.0 | 5.0 | 0.00 | 0.00 | 0.00 | 52 | 1016.2 |
| 20260906182702 | 83 | 131 | 2.0 | 5.0 | 0.00 | 0.00 | 0.00 | 53 | 1016.2 |
| 20260906182158 | 83 | 159 | 2.0 | 3.0 | 0.00 | 0.00 | 0.00 | 50 | 1016.2 |
| 20260906181653 | 82 | 220 | 3.0 | 3.0 | 0.00 | 0.00 | 0.00 | 54 | 1016.3 |
| 20260906181149 | 81 | 218 | 1.0 | 3.0 | 0.00 | 0.00 | 0.00 | 55 | 1016.4 |
| 20260906180644 | 81 | 150 | 3.0 | 4.0 | 0.00 | 0.00 | 0.00 | 54 | 1016.3 |
| 20260906180139 | 81 | 196 | 1.0 | 3.0 | 0.00 | 0.00 | 0.00 | 53 | 1016.1 |
| 20260906175637 | 82 | 274 | 4.0 | 4.0 | 0.00 | 0.00 | 0.00 | 54 | 1016.1 |
| 20260906175132 | 81 | 210 | 3.0 | 4.0 | 0.00 | 0.00 | 0.00 | 53 | 1016.3 |
| 20260906174630 | 81 | 235 | 5.0 | 6.0 | 0.00 | 0.00 | 0.00 | 54 | 1016.1 |
| 20260906174125 | 82 | 277 | 4.0 | 5.0 | 0.00 | 0.00 | 0.00 | 53 | 1016.3 |
| 20260906173620 | 82 | 223 | 3.0 | 5.0 | 0.00 | 0.00 | 0.00 | 54 | 1016.3 |
| 20260906173110 | 82 | 166 | 0.0 | 5.0 | 0.00 | 0.00 | 0.00 | 52 | 1016.2 |
| 20260906172610 | 82 | 309 | 0.0 | 3.0 | 0.00 | 0.00 | 0.00 | 54 | 1016.2 |
| 20260906172106 | 82 | 232 | 2.0 | 4.0 | 0.00 | 0.00 | 0.00 | 54 | 1016.4 |
| 20260906171605 | 81 | 260 | 2.0 | 4.0 | 0.00 | 0.00 | 0.00 | 53 | 1016.3 |
| 20260906171101 | 81 | 212 | 4.0 | 9.0 | 0.00 | 0.00 | 0.00 | 53 | 1016.4 |
| 20260906170556 | 80 | 212 | 0.0 | 4.0 | 0.00 | 0.00 | 0.00 | 54 | 1016.4 |
| 20260906170055 | 81 | 200 | 2.0 | 4.0 | 0.00 | 0.00 | 0.00 | 56 | 1016.4 |
| 20260906165552 | 81 | 219 | 2.0 | 4.0 | 0.00 | 0.00 | 0.00 | 56 | 1016.4 |
| 20260906165047 | 81 | 347 | 1.0 | 5.0 | 0.00 | 0.00 | 0.00 | 56 | 1016.6 |
| 20260906164546 | 81 | 160 | 0.0 | 2.0 | 0.00 | 0.00 | 0.00 | 53 | 1016.5 |
| 20260906164042 | 80 | 28 | 0.0 | 4.0 | 0.00 | 0.00 | 0.00 | 54 | 1016.6 |
| 20260906163538 | 80 | 276 | 3.0 | 5.0 | 0.00 | 0.00 | 0.00 | 54 | 1016.7 |
| 20260906163033 | 80 | 209 | 3.0 | 6.0 | 0.00 | 0.00 | 0.00 | 54 | 1016.5 |
| 20260906162530 | 80 | 143 | 3.0 | 4.0 | 0.00 | 0.00 | 0.00 | 54 | 1016.8 |
| 20260906162025 | 80 | 132 | 2.0 | 2.0 | 0.00 | 0.00 | 0.00 | 54 | 1016.8 |
| 20260906161521 | 80 | 189 | 2.0 | 3.0 | 0.00 | 0.00 | 0.00 | 55 | 1016.8 |
| 20260906161019 | 81 | 258 | 2.0 | 4.0 | 0.00 | 0.00 | 0.00 | 58 | 1016.6 |
| 20260906160518 | 80 | 302 | 0.0 | 2.0 | 0.00 | 0.00 | 0.00 | 60 | 1016.7 |
| 20260906160017 | 80 | 157 | 3.0 | 3.0 | 0.00 | 0.00 | 0.00 | 58 | 1016.8 |
| 20260906155514 | 80 | 151 | 2.0 | 3.0 | 0.00 | 0.00 | 0.00 | 61 | 1016.9 |
| 20260906155011 | 80 | 230 | 2.0 | 3.0 | 0.00 | 0.00 | 0.00 | 61 | 1017.1 |
| 20260906154506 | 80 | 211 | 3.0 | 3.0 | 0.00 | 0.00 | 0.00 | 58 | 1017.1 |
| 20260906154004 | 79 | 239 | 1.0 | 3.0 | 0.00 | 0.00 | 0.00 | 61 | 1017.1 |
| 20260906153503 | 79 | 210 | 2.0 | 5.0 | 0.00 | 0.00 | 0.00 | 58 | 1017.2 |
| 20260906152959 | 79 | 85 | 0.0 | 8.0 | 0.00 | 0.00 | 0.00 | 60 | 1017.0 |
| 20260906152458 | 79 | 247 | 1.0 | 7.0 | 0.00 | 0.00 | 0.00 | 59 | 1016.9 |
| 20260906151952 | 79 | 178 | 1.0 | 5.0 | 0.00 | 0.00 | 0.00 | 60 | 1017.1 |
| 20260906151448 | 79 | 359 | 0.0 | 2.0 | 0.00 | 0.00 | 0.00 | 63 | 1017.0 |
| 20260906150944 | 79 | 281 | 1.0 | 5.0 | 0.00 | 0.00 | 0.00 | 64 | 1016.9 |
| 20260906150439 | 79 | 252 | 5.0 | 5.0 | 0.00 | 0.00 | 0.00 | 62 | 1016.8 |
| 20260906145932 | 78 | 185 | 2.0 | 5.0 | 0.00 | 0.00 | 0.00 | 68 | 1016.7 |
| 20260906145431 | 77 | 254 | 0.0 | 1.0 | 0.00 | 0.00 | 0.00 | 72 | 1016.7 |
| 20260906144926 | 78 | 262 | 4.0 | 4.0 | 0.00 | 0.00 | 0.00 | 70 | 1016.6 |
| 20260906144421 | 77 | 264 | 0.0 | 2.0 | 0.00 | 0.00 | 0.00 | 73 | 1016.8 |
| 20260906143916 | 77 | 254 | 0.0 | 3.0 | 0.00 | 0.00 | 0.00 | 74 | 1016.7 |
| 20260906143412 | 76 | 212 | 2.0 | 2.0 | 0.00 | 0.00 | 0.00 | 74 | 1016.7 |
| 20260906142908 | 76 | 168 | 1.0 | 3.0 | 0.00 | 0.00 | 0.00 | 76 | 1016.6 |
| 20260906142407 | 76 | 67 | 0.0 | 1.0 | 0.00 | 0.00 | 0.00 | 76 | 1016.6 |
| 20260906141902 | 76 | 194 | 1.0 | 4.0 | 0.00 | 0.00 | 0.00 | 75 | 1016.6 |
| 20260906141401 | 76 | 200 | 2.0 | 3.0 | 0.00 | 0.00 | 0.00 | 77 | 1016.7 |
| 20260906140856 | 75 | 152 | 0.0 | 2.0 | 0.00 | 0.00 | 0.00 | 79 | 1016.4 |
| 20260906140351 | 75 | 215 | 1.0 | 2.0 | 0.00 | 0.00 | 0.00 | 79 | 1016.4 |
| 20260906135849 | 75 | 257 | 2.0 | 3.0 | 0.00 | 0.00 | 0.00 | 76 | 1016.6 |
| 20260906135349 | 74 | 201 | 2.0 | 2.0 | 0.00 | 0.00 | 0.00 | 78 | 1016.5 |
| 20260906134844 | 74 | 178 | 0.0 | 3.0 | 0.00 | 0.00 | 0.00 | 80 | 1016.5 |
| 20260906134339 | 74 | 187 | 0.0 | 2.0 | 0.00 | 0.00 | 0.00 | 77 | 1016.6 |
| 20260906133834 | 74 | 144 | 0.0 | 4.0 | 0.00 | 0.00 | 0.00 | 79 | 1016.3 |
| 20260906133324 | 74 | 196 | 3.0 | 3.0 | 0.00 | 0.00 | 0.00 | 78 | 1016.4 |
| 20260906132820 | 74 | 185 | 1.0 | 4.0 | 0.00 | 0.00 | 0.00 | 79 | 1016.3 |
| 20260906132315 | 73 | 210 | 2.0 | 4.0 | 0.00 | 0.00 | 0.00 | 82 | 1016.4 |
| 20260906131810 | 73 | 211 | 3.0 | 6.0 | 0.00 | 0.00 | 0.00 | 81 | 1016.2 |
| 20260906131305 | 72 | 222 | 1.0 | 5.0 | 0.00 | 0.00 | 0.00 | 84 | 1016.2 |
| 20260906130801 | 72 | 253 | 0.0 | 5.0 | 0.00 | 0.00 | 0.00 | 85 | 1016.0 |
| 20260906130256 | 71 | 283 | 3.0 | 3.0 | 0.00 | 0.00 | 0.00 | 86 | 1016.1 |
| 20260906125754 | 71 | 210 | 2.0 | 3.0 | 0.00 | 0.00 | 0.00 | 87 | 1016.1 |
| 20260906125252 | 71 | 185 | 2.0 | 3.0 | 0.00 | 0.00 | 0.00 | 87 | 1016.2 |
| 20260906124752 | 71 | 178 | 0.0 | 3.0 | 0.00 | 0.00 | 0.00 | 88 | 1016.1 |
| 20260906124249 | 71 | 156 | 0.0 | 2.0 | 0.00 | 0.00 | 0.00 | 90 | 1016.5 |
| 20260906123747 | 71 | 177 | 0.0 | 1.0 | 0.00 | 0.00 | 0.00 | 89 | 1016.6 |
| 20260906123242 | 71 | 181 | 2.0 | 3.0 | 0.00 | 0.00 | 0.00 | 89 | 1016.2 |
| 20260906122742 | 71 | 158 | 1.0 | 3.0 | 0.00 | 0.00 | 0.00 | 90 | 1016.2 |
| 20260906122237 | 71 | 104 | 2.0 | 3.0 | 0.00 | 0.00 | 0.00 | 89 | 1016.2 |
| 20260906121734 | 71 | 170 | 2.0 | 2.0 | 0.00 | 0.00 | 0.00 | 89 | 1016.3 |
| 20260906121230 | 71 | 164 | 2.0 | 2.0 | 0.00 | 0.00 | 0.00 | 90 | 1016.2 |
| 20260906120725 | 71 | 174 | 1.0 | 2.0 | 0.00 | 0.00 | 0.00 | 91 | 1015.9 |
| 20260906120222 | 71 | 164 | 2.0 | 3.0 | 0.00 | 0.00 | 0.00 | 91 | 1015.9 |
| 20260906115717 | 71 | 224 | 1.0 | 3.0 | 0.00 | 0.00 | 0.00 | 92 | 1015.7 |
| 20260906115212 | 70 | 199 | 0.0 | 3.0 | 0.00 | 0.00 | 0.00 | 92 | 1015.8 |
| 20260906114711 | 70 | 176 | 2.0 | 3.0 | 0.00 | 0.00 | 0.00 | 93 | 1015.6 |
| 20260906114206 | 70 | 137 | 1.0 | 2.0 | 0.00 | 0.00 | 0.00 | 95 | 1015.9 |
| 20260906113701 | 70 | 155 | 2.0 | 2.0 | 0.00 | 0.00 | 0.00 | 95 | 1015.6 |
| 20260906113201 | 70 | 117 | 1.0 | 1.0 | 0.00 | 0.00 | 0.00 | 96 | 1015.6 |
| 20260906112700 | 70 | 149 | 0.0 | 2.0 | 0.00 | 0.00 | 0.00 | 96 | 1015.6 |
| 20260906112158 | 70 | 154 | 2.0 | 3.0 | 0.00 | 0.00 | 0.00 | 97 | 1015.5 |
| 20260906111657 | 70 | 141 | 2.0 | 3.0 | 0.00 | 0.00 | 0.00 | 98 | 1015.2 |
| 20260906111151 | 70 | 188 | 2.0 | 2.0 | 0.00 | 0.00 | 0.00 | 98 | 1015.3 |
| 20260906110646 | 70 | 157 | 1.0 | 2.0 | 0.00 | 0.00 | 0.00 | 99 | 1015.1 |
| 20260906110142 | 70 | 160 | 0.0 | 1.0 | 0.00 | 0.00 | 0.00 | 99 | 1015.0 |
| 20260906105636 | 70 | 140 | 0.0 | 2.0 | 0.00 | 0.00 | 0.00 | 99 | 1014.9 |
| 20260906105132 | 70 | 148 | 2.0 | 3.0 | 0.00 | 0.00 | 0.00 | 99 | 1015.1 |
| 20260906104632 | 70 | 152 | 1.0 | 2.0 | 0.00 | 0.00 | 0.00 | 99 | 1015.0 |
| 20260906104131 | 70 | 150 | 0.0 | 2.0 | 0.00 | 0.00 | 0.00 | 99 | 1014.8 |
| 20260906103629 | 70 | 196 | 0.0 | 2.0 | 0.00 | 0.00 | 0.00 | 99 | 1015.0 |
| 20260906103124 | 71 | 172 | 0.0 | 1.0 | 0.00 | 0.00 | 0.00 | 99 | 1015.0 |
| 20260906102619 | 71 | 168 | 1.0 | 2.0 | 0.00 | 0.00 | 0.00 | 99 | 1014.9 |
| 20260906102114 | 71 | 170 | 2.0 | 2.0 | 0.00 | 0.00 | 0.00 | 99 | 1014.8 |
| 20260906101615 | 71 | 157 | 2.0 | 2.0 | 0.00 | 0.00 | 0.00 | 99 | 1014.6 |
| 20260906101115 | 71 | 152 | 1.0 | 2.0 | 0.00 | 0.00 | 0.00 | 99 | 1014.7 |
| 20260906100610 | 71 | 154 | 2.0 | 2.0 | 0.00 | 0.00 | 0.00 | 99 | 1014.6 |
| 20260906100110 | 71 | 162 | 2.0 | 2.0 | 0.00 | 0.00 | 0.00 | 99 | 1014.5 |
| 20260906095610 | 71 | 155 | 2.0 | 2.0 | 0.00 | 0.00 | 0.00 | 99 | 1014.3 |
| 20260906095105 | 71 | 168 | 0.0 | 2.0 | 0.00 | 0.00 | 0.00 | 99 | 1014.2 |
| 20260906094604 | 71 | 147 | 2.0 | 2.0 | 0.00 | 0.00 | 0.00 | 99 | 1014.3 |
| 20260906094101 | 71 | 171 | 0.0 | 1.0 | 0.00 | 0.00 | 0.00 | 99 | 1014.4 |
| 20260906093556 | 71 | 155 | 1.0 | 1.0 | 0.00 | 0.00 | 0.00 | 99 | 1014.3 |
| 20260906093051 | 71 | 144 | 1.0 | 2.0 | 0.00 | 0.00 | 0.00 | 99 | 1014.4 |
| 20260906092546 | 71 | 145 | 1.0 | 3.0 | 0.00 | 0.00 | 0.00 | 99 | 1014.2 |
| 20260906092041 | 71 | 157 | 1.0 | 2.0 | 0.00 | 0.00 | 0.00 | 99 | 1013.9 |
| 20260906091537 | 71 | 178 | 1.0 | 2.0 | 0.00 | 0.00 | 0.00 | 99 | 1014.0 |
| 20260906091033 | 71 | 149 | 2.0 | 2.0 | 0.00 | 0.00 | 0.00 | 99 | 1013.9 |
| 20260906090528 | 71 | 160 | 0.0 | 0.0 | 0.00 | 0.00 | 0.00 | 99 | 1013.9 |
| 20260906090023 | 71 | 109 | 0.0 | 1.0 | 0.00 | 0.00 | 0.00 | 99 | 1013.8 |
| 20260906085521 | 71 | 80 | 0.0 | 1.0 | 0.00 | 0.00 | 0.00 | 99 | 1014.0 |
| 20260906085021 | 71 | 160 | 1.0 | 2.0 | 0.00 | 0.00 | 0.00 | 99 | 1013.7 |
| 20260906084516 | 71 | 168 | 1.0 | 2.0 | 0.00 | 0.00 | 0.00 | 99 | 1013.9 |
| 20260906084014 | 71 | 147 | 0.0 | 2.0 | 0.00 | 0.00 | 0.00 | 99 | 1013.8 |
| 20260906083511 | 72 | 184 | 1.0 | 2.0 | 0.00 | 0.00 | 0.00 | 99 | 1013.8 |
| 20260906083010 | 72 | 146 | 0.0 | 1.0 | 0.00 | 0.00 | 0.00 | 99 | 1013.8 |
| 20260906082505 | 72 | 160 | 0.0 | 2.0 | 0.00 | 0.00 | 0.00 | 99 | 1013.8 |
| 20260906082001 | 72 | 143 | 0.0 | 2.0 | 0.00 | 0.00 | 0.00 | 99 | 1013.8 |
| 20260906081456 | 72 | 165 | 0.0 | 2.0 | 0.00 | 0.00 | 0.00 | 99 | 1013.7 |
| 20260906080952 | 72 | 151 | 0.0 | 2.0 | 0.00 | 0.00 | 0.00 | 99 | 1013.7 |
| 20260906080449 | 72 | 107 | 0.0 | 1.0 | 0.00 | 0.00 | 0.00 | 99 | 1013.7 |
| 20260906075949 | 72 | 163 | 0.0 | 1.0 | 0.00 | 0.00 | 0.00 | 99 | 1013.6 |
| 20260906075444 | 72 | 136 | 0.0 | 1.0 | 0.00 | 0.00 | 0.00 | 99 | 1013.6 |
| 20260906074939 | 72 | 146 | 1.0 | 1.0 | 0.00 | 0.00 | 0.00 | 99 | 1013.5 |
| 20260906074433 | 72 | 159 | 0.0 | 2.0 | 0.00 | 0.00 | 0.00 | 99 | 1013.4 |
| 20260906073931 | 72 | 146 | 0.0 | 1.0 | 0.00 | 0.00 | 0.00 | 99 | 1013.6 |
| 20260906073426 | 72 | 191 | 1.0 | 1.0 | 0.00 | 0.00 | 0.00 | 99 | 1013.5 |
| 20260906072923 | 72 | 205 | 1.0 | 3.0 | 0.00 | 0.00 | 0.00 | 99 | 1013.5 |
| 20260906072418 | 72 | 146 | 2.0 | 2.0 | 0.00 | 0.00 | 0.00 | 99 | 1013.5 |
| 20260906071914 | 72 | 143 | 1.0 | 2.0 | 0.00 | 0.00 | 0.00 | 99 | 1013.7 |
| 20260906071409 | 72 | 172 | 0.0 | 2.0 | 0.00 | 0.00 | 0.00 | 99 | 1013.5 |
| 20260906070905 | 72 | 165 | 2.0 | 2.0 | 0.00 | 0.00 | 0.00 | 99 | 1013.5 |
| 20260906070401 | 72 | 143 | 1.0 | 2.0 | 0.00 | 0.00 | 0.00 | 99 | 1013.4 |
| 20260906065856 | 72 | 132 | 1.0 | 2.0 | 0.00 | 0.00 | 0.00 | 99 | 1013.4 |
| 20260906065350 | 72 | 184 | 1.0 | 1.0 | 0.00 | 0.00 | 0.00 | 99 | 1013.6 |
| 20260906064846 | 72 | 151 | 2.0 | 2.0 | 0.00 | 0.00 | 0.00 | 99 | 1013.2 |
| 20260906064342 | 72 | 133 | 1.0 | 2.0 | 0.00 | 0.00 | 0.00 | 99 | 1013.2 |
| 20260906063836 | 72 | 147 | 0.0 | 1.0 | 0.00 | 0.00 | 0.00 | 99 | 1013.4 |
| 20260906063332 | 72 | 185 | 2.0 | 2.0 | 0.00 | 0.00 | 0.00 | 99 | 1013.7 |
| 20260906062827 | 72 | 162 | 2.0 | 2.0 | 0.00 | 0.00 | 0.00 | 99 | 1013.9 |
| 20260906062326 | 72 | 159 | 1.0 | 2.0 | 0.00 | 0.00 | 0.00 | 99 | 1013.5 |
| 20260906061822 | 72 | 149 | 1.0 | 2.0 | 0.00 | 0.00 | 0.00 | 99 | 1013.8 |
| 20260906061318 | 72 | 135 | 2.0 | 2.0 | 0.00 | 0.00 | 0.00 | 99 | 1013.7 |
| 20260906060813 | 72 | 148 | 1.0 | 2.0 | 0.00 | 0.00 | 0.00 | 99 | 1013.7 |
| 20260906060310 | 72 | 139 | 1.0 | 2.0 | 0.00 | 0.00 | 0.00 | 99 | 1013.8 |
| 20260906055806 | 72 | 125 | 1.0 | 2.0 | 0.00 | 0.00 | 0.00 | 99 | 1013.9 |
| 20260906055301 | 72 | 186 | 1.0 | 2.0 | 0.00 | 0.00 | 0.00 | 99 | 1013.9 |
| 20260906054756 | 72 | 128 | 0.0 | 1.0 | 0.00 | 0.00 | 0.00 | 99 | 1013.9 |
| 20260906054252 | 72 | 270 | 1.0 | 2.0 | 0.00 | 0.00 | 0.00 | 99 | 1013.9 |
| 20260906053748 | 72 | 157 | 1.0 | 1.0 | 0.00 | 0.00 | 0.00 | 99 | 1013.8 |
| 20260906053244 | 72 | 178 | 2.0 | 3.0 | 0.00 | 0.00 | 0.00 | 99 | 1013.9 |
| 20260906052738 | 72 | 168 | 2.0 | 3.0 | 0.00 | 0.00 | 0.00 | 99 | 1013.7 |
| 20260906052235 | 72 | 176 | 1.0 | 2.0 | 0.00 | 0.00 | 0.00 | 99 | 1014.0 |
| 20260906051731 | 72 | 156 | 1.0 | 2.0 | 0.00 | 0.00 | 0.00 | 99 | 1014.1 |
| 20260906051231 | 72 | 142 | 1.0 | 2.0 | 0.00 | 0.00 | 0.00 | 99 | 1014.2 |
| 20260906050727 | 72 | 134 | 1.0 | 2.0 | 0.00 | 0.00 | 0.00 | 99 | 1014.1 |
| 20260906050222 | 72 | 165 | 0.0 | 1.0 | 0.00 | 0.00 | 0.00 | 99 | 1014.1 |
| 20260906045720 | 72 | 149 | 1.0 | 2.0 | 0.00 | 0.00 | 0.00 | 99 | 1014.1 |
| 20260906045216 | 72 | 154 | 0.0 | 2.0 | 0.00 | 0.00 | 0.00 | 99 | 1014.2 |
| 20260906044711 | 72 | 149 | 2.0 | 2.0 | 0.00 | 0.00 | 0.00 | 99 | 1014.0 |
| 20260906044206 | 72 | 157 | 1.0 | 2.0 | 0.00 | 0.00 | 0.00 | 99 | 1014.1 |
| 20260906043702 | 72 | 180 | 0.0 | 2.0 | 0.00 | 0.00 | 0.00 | 99 | 1014.0 |
| 20260906043158 | 72 | 174 | 2.0 | 2.0 | 0.00 | 0.00 | 0.00 | 99 | 1013.9 |
| 20260906042657 | 72 | 180 | 1.0 | 2.0 | 0.00 | 0.00 | 0.00 | 99 | 1013.9 |
| 20260906042151 | 72 | 175 | 1.0 | 1.0 | 0.00 | 0.00 | 0.00 | 99 | 1013.9 |
| 20260906041647 | 72 | 205 | 1.0 | 1.0 | 0.00 | 0.00 | 0.00 | 99 | 1014.2 |
| 20260906041142 | 71 | 180 | 1.0 | 2.0 | 0.00 | 0.00 | 0.00 | 99 | 1014.2 |
| 20260906040637 | 71 | 152 | 1.0 | 2.0 | 0.00 | 0.00 | 0.00 | 99 | 1013.9 |
| 20260906040133 | 71 | 256 | 0.0 | 1.0 | 0.00 | 0.00 | 0.00 | 99 | 1014.1 |
| 20260906035628 | 71 | 140 | 0.0 | 2.0 | 0.00 | 0.46 | 0.46 | 99 | 1014.2 |
| 20260906035123 | 71 | 161 | 2.0 | 2.0 | 0.00 | 0.46 | 0.46 | 99 | 1014.1 |
| 20260906034617 | 71 | 173 | 1.0 | 2.0 | 0.00 | 0.46 | 0.46 | 99 | 1014.3 |
| 20260906034112 | 71 | 127 | 2.0 | 2.0 | 0.00 | 0.46 | 0.46 | 99 | 1014.1 |
| 20260906033609 | 71 | 167 | 0.0 | 1.0 | 0.00 | 0.46 | 0.46 | 99 | 1014.1 |
| 20260906033103 | 71 | 168 | 2.0 | 3.0 | 0.00 | 0.46 | 0.46 | 99 | 1014.0 |
| 20260906032600 | 71 | 205 | 0.0 | 2.0 | 0.00 | 0.46 | 0.46 | 99 | 1013.8 |
| 20260906032059 | 71 | 165 | 1.0 | 2.0 | 0.00 | 0.46 | 0.46 | 99 | 1014.2 |
| 20260906031555 | 72 | 152 | 1.0 | 2.0 | 0.00 | 0.46 | 0.46 | 99 | 1014.1 |
| 20260906031050 | 72 | 140 | 2.0 | 2.0 | 0.00 | 0.46 | 0.46 | 99 | 1013.9 |
| 20260906030549 | 72 | 111 | 0.0 | 1.0 | 0.00 | 0.46 | 0.46 | 99 | 1013.8 |
| 20260906030044 | 72 | 159 | 0.0 | 2.0 | 0.00 | 0.46 | 0.46 | 99 | 1014.1 |
| 20260906025544 | 72 | 171 | 0.0 | 1.0 | 0.00 | 0.46 | 0.46 | 99 | 1014.0 |
| 20260906025042 | 72 | 142 | 0.0 | 1.0 | 0.00 | 0.46 | 0.46 | 99 | 1013.9 |
| 20260906024538 | 72 | 139 | 1.0 | 2.0 | 0.00 | 0.46 | 0.46 | 99 | 1014.0 |
| 20260906024037 | 72 | 160 | 1.0 | 1.0 | 0.00 | 0.46 | 0.46 | 99 | 1013.9 |
| 20260906023534 | 72 | 190 | 0.0 | 0.0 | 0.00 | 0.46 | 0.46 | 99 | 1013.9 |
| 20260906023028 | 72 | 137 | 0.0 | 1.0 | 0.00 | 0.46 | 0.46 | 98 | 1014.0 |
| 20260906022523 | 72 | 139 | 0.0 | 1.0 | 0.00 | 0.46 | 0.46 | 98 | 1014.2 |
| 20260906022019 | 73 | 140 | 1.0 | 1.0 | 0.00 | 0.46 | 0.46 | 98 | 1014.1 |
| 20260906021514 | 73 | 147 | 0.0 | 0.0 | 0.00 | 0.46 | 0.46 | 98 | 1014.1 |
| 20260906021008 | 73 | 147 | 0.0 | 0.0 | 0.00 | 0.46 | 0.46 | 98 | 1014.1 |
| 20260906020508 | 73 | 134 | 0.0 | 1.0 | 0.00 | 0.46 | 0.46 | 98 | 1014.3 |
| 20260906020007 | 73 | 138 | 1.0 | 2.0 | 0.00 | 0.46 | 0.46 | 98 | 1014.2 |
| 20260906015506 | 73 | 119 | 0.0 | 0.0 | 0.00 | 0.46 | 0.46 | 98 | 1014.0 |
| 20260906015001 | 73 | 119 | 0.0 | 0.0 | 0.00 | 0.46 | 0.46 | 98 | 1013.9 |
| 20260906014455 | 73 | 119 | 0.0 | 1.0 | 0.00 | 0.46 | 0.46 | 98 | 1014.0 |
| 20260906013951 | 73 | 147 | 0.0 | 1.0 | 0.00 | 0.46 | 0.46 | 98 | 1013.9 |
| 20260906013447 | 73 | 191 | 1.0 | 1.0 | 0.00 | 0.46 | 0.46 | 98 | 1013.7 |
| 20260906012942 | 73 | 172 | 0.0 | 2.0 | 0.00 | 0.46 | 0.46 | 98 | 1013.8 |
| 20260906012437 | 74 | 169 | 1.0 | 2.0 | 0.00 | 0.46 | 0.46 | 98 | 1013.7 |
| 20260906011936 | 74 | 165 | 0.0 | 2.0 | 0.00 | 0.46 | 0.46 | 98 | 1013.6 |
| 20260906011432 | 74 | 172 | 0.0 | 1.0 | 0.00 | 0.46 | 0.46 | 98 | 1013.6 |
| 20260906010927 | 73 | 184 | 0.0 | 0.0 | 0.00 | 0.46 | 0.46 | 98 | 1013.4 |
| 20260906010422 | 73 | 175 | 0.0 | 2.0 | 0.00 | 0.46 | 0.46 | 97 | 1013.5 |
| 20260906005918 | 73 | 188 | 1.0 | 2.0 | 0.00 | 0.46 | 0.46 | 97 | 1013.2 |
| 20260906005418 | 73 | 154 | 0.0 | 0.0 | 0.00 | 0.46 | 0.46 | 97 | 1013.1 |
| 20260906004916 | 73 | 144 | 0.0 | 1.0 | 0.00 | 0.46 | 0.46 | 97 | 1013.0 |
| 20260906004411 | 74 | 125 | 1.0 | 2.0 | 0.00 | 0.46 | 0.46 | 96 | 1013.2 |
| 20260906003907 | 74 | 140 | 1.0 | 1.0 | 0.00 | 0.46 | 0.46 | 96 | 1013.1 |
| 20260906003402 | 74 | 157 | 1.0 | 2.0 | 0.00 | 0.46 | 0.46 | 97 | 1013.0 |
| 20260906002857 | 74 | 203 | 0.0 | 1.0 | 0.00 | 0.46 | 0.46 | 96 | 1013.0 |
| 20260906002356 | 74 | 191 | 1.0 | 2.0 | 0.00 | 0.46 | 0.46 | 96 | 1013.1 |
| 20260906001851 | 74 | 161 | 1.0 | 2.0 | 0.00 | 0.46 | 0.46 | 96 | 1012.6 |
| 20260906001347 | 74 | 170 | 1.0 | 2.0 | 0.00 | 0.46 | 0.46 | 96 | 1012.8 |
| 20260906000843 | 74 | 177 | 0.0 | 0.0 | 0.00 | 0.46 | 0.46 | 96 | 1012.5 |
| 20260906000342 | 74 | 159 | 0.0 | 1.0 | 0.00 | 0.46 | 0.46 | 95 | 1012.4 |
| 20260905235843 | 74 | 135 | 1.0 | 2.0 | 0.00 | 0.46 | 0.46 | 95 | 1012.5 |
| 20260905235337 | 75 | 168 | 1.0 | 1.0 | 0.00 | 0.46 | 0.46 | 95 | 1012.3 |
| 20260905234832 | 75 | 159 | 0.0 | 1.0 | 0.00 | 0.46 | 0.46 | 95 | 1012.6 |
| 20260905234328 | 75 | 127 | 1.0 | 2.0 | 0.00 | 0.46 | 0.46 | 95 | 1012.6 |
| 20260905233823 | 75 | 126 | 1.0 | 1.0 | 0.00 | 0.46 | 0.46 | 94 | 1012.5 |
| 20260905233318 | 75 | 183 | 1.0 | 2.0 | 0.00 | 0.46 | 0.46 | 94 | 1012.4 |
| 20260905232817 | 76 | 174 | 1.0 | 2.0 | 0.00 | 0.46 | 0.46 | 93 | 1012.1 |
| 20260905232313 | 76 | 149 | 0.0 | 2.0 | 0.00 | 0.46 | 0.46 | 91 | 1012.3 |
| 20260905231809 | 76 | 147 | 0.0 | 1.0 | 0.00 | 0.46 | 0.46 | 91 | 1011.9 |
| 20260905231303 | 76 | 242 | 0.0 | 0.0 | 0.00 | 0.46 | 0.46 | 90 | 1011.9 |
| 20260905230800 | 77 | 119 | 0.0 | 1.0 | 0.00 | 0.46 | 0.46 | 89 | 1012.3 |
| 20260905230257 | 77 | 164 | 0.0 | 1.0 | 0.00 | 0.46 | 0.46 | 87 | 1012.5 |
| 20260905225757 | 78 | 184 | 0.0 | 1.0 | 0.00 | 0.46 | 0.46 | 86 | 1012.7 |
| 20260905225252 | 78 | 166 | 0.0 | 1.0 | 0.00 | 0.46 | 0.46 | 85 | 1012.7 |
| 20260905224752 | 78 | 168 | 1.0 | 2.0 | 0.00 | 0.46 | 0.46 | 84 | 1012.7 |
| 20260905224247 | 79 | 180 | 1.0 | 1.0 | 0.00 | 0.46 | 0.46 | 83 | 1012.4 |
| 20260905223743 | 79 | 173 | 1.0 | 2.0 | 0.00 | 0.46 | 0.46 | 83 | 1012.6 |
| 20260905223240 | 79 | 182 | 0.0 | 2.0 | 0.00 | 0.46 | 0.46 | 82 | 1012.7 |
| 20260905222735 | 79 | 213 | 1.0 | 1.0 | 0.00 | 0.46 | 0.46 | 81 | 1012.6 |
| 20260905222234 | 79 | 233 | 0.0 | 1.0 | 0.00 | 0.46 | 0.46 | 81 | 1012.6 |
| 20260905221730 | 80 | 200 | 1.0 | 1.0 | 0.00 | 0.46 | 0.46 | 80 | 1012.6 |
| 20260905221227 | 80 | 204 | 1.0 | 2.0 | 0.00 | 0.46 | 0.46 | 81 | 1012.3 |
| 20260905220723 | 79 | 235 | 0.0 | 1.0 | 0.00 | 0.46 | 0.46 | 81 | 1012.5 |
| 20260905220219 | 79 | 147 | 0.0 | 2.0 | 0.00 | 0.46 | 0.46 | 84 | 1012.3 |
| 20260905215718 | 79 | 119 | 0.0 | 2.0 | 0.00 | 0.46 | 0.46 | 82 | 1012.3 |
| 20260905215214 | 80 | 143 | 1.0 | 1.0 | 0.00 | 0.46 | 0.46 | 83 | 1012.1 |
| 20260905214709 | 79 | 234 | 1.0 | 2.0 | 0.00 | 0.46 | 0.46 | 79 | 1012.2 |
| 20260905214205 | 79 | 226 | 0.0 | 2.0 | 0.00 | 0.46 | 0.46 | 80 | 1012.4 |
| 20260905213700 | 78 | 154 | 0.0 | 1.0 | 0.00 | 0.46 | 0.46 | 83 | 1012.3 |
| 20260905213156 | 78 | 190 | 2.0 | 2.0 | 0.00 | 0.46 | 0.46 | 87 | 1012.2 |
| 20260905212651 | 78 | 119 | 0.0 | 1.0 | 0.00 | 0.46 | 0.46 | 85 | 1012.3 |
| 20260905212150 | 78 | 79 | 1.0 | 2.0 | 0.00 | 0.46 | 0.46 | 86 | 1012.2 |
| 20260905211644 | 78 | 164 | 0.0 | 2.0 | 0.00 | 0.46 | 0.46 | 84 | 1012.4 |
| 20260905211140 | 78 | 221 | 3.0 | 3.0 | 0.00 | 0.46 | 0.46 | 85 | 1012.2 |
| 20260905210637 | 77 | 217 | 2.0 | 2.0 | 0.00 | 0.46 | 0.46 | 88 | 1012.5 |
| 20260905210137 | 77 | 255 | 1.0 | 3.0 | 0.00 | 0.46 | 0.46 | 88 | 1012.5 |
| 20260905205636 | 77 | 119 | 0.0 | 1.0 | 0.00 | 0.46 | 0.46 | 90 | 1012.6 |
| 20260905205130 | 77 | 134 | 0.0 | 0.0 | 0.00 | 0.46 | 0.46 | 91 | 1012.5 |
| 20260905204629 | 77 | 154 | 0.0 | 0.0 | 0.00 | 0.46 | 0.46 | 89 | 1012.6 |
| 20260905204125 | 77 | 92 | 0.0 | 0.0 | 0.00 | 0.46 | 0.46 | 89 | 1012.6 |
| 20260905203625 | 77 | 55 | 0.0 | 2.0 | 0.00 | 0.46 | 0.46 | 91 | 1012.6 |